Regional Weather Roundup
Issued by NWS

Home | Current Version | Previous Version | Text Only | Print | Product List | Glossary Off
Versions: 1 2 3 4 5 6 7 8 9 10 11 12 13 14 15 16 17 18 19 20 21 22 23 24 25 26 27 28 29 30 31 32 33 34 35 36 37 38 39 40 41 42 43 44 45 46 47 48 49 50

000
ASUS43 KDMX 290207
RWRIA

WEATHER ROUNDUP FOR IOWA
NATIONAL WEATHER SERVICE DES MOINES IA
800 PM CST WED JAN 28 2015

NOTE: "FAIR" INDICATES FEW OR NO CLOUDS BELOW 12,000 FEET WITH NO
SIGNIFICANT WEATHER AND/OR OBSTRUCTIONS TO VISIBILITY.

* - THESE STATIONS ARE NOT NWS STATIONS...THUS NOT UNDER NWS
QUALITY CONTROL.  THEY ALSO DO NOT REPORT WEATHER SUCH
AS PRECIPITATION OR FOG.

IAZ001>003-012>014-020>022-031>034-043>046-290300-
   NORTHWEST IOWA

CITY           SKY/WX    TMP DP  RH WIND       PRES   REMARKS
CARROLL *      CLEAR     32  32 100 NW6       29.71S WCI  26
CHEROKEE *     MOCLDY    34  34 100 N6        29.77R FOG     WCI  29
DENISON *      CLEAR     37  34  87 N5        29.71R WCI  34
LE MARS *      CLOUDY    37  36  93 N9        29.79R WCI  31
ORANGE CITY *  CLOUDY    37  34  87 N3        29.78R FOG
SHELDON *      CLOUDY    34  34 100 N8        29.77R FOG     WCI  27
SIOUX CITY     PTCLDY    43  37  79 NW18      29.77R
SPENCER        CLOUDY    35  32  88 N8        29.77R FOG     WCI  29
STORM LAKE *   CLEAR     32  32 100 N8        29.75R FOG     WCI  25
$$

IAZ055>058-069>071-079>083-090>094-290300-
   SOUTHWEST IOWA

CITY           SKY/WX    TMP DP  RH WIND       PRES   REMARKS
ATLANTIC *     CLEAR     34  30  86 CALM      29.70S
AUDUBON *      CLEAR     34  28  80 CALM      29.72R
CLARINDA *     CLEAR     46  36  66 W7        29.73R
COUNCIL BLFS * CLEAR     48  37  66 NW16      29.73R
CRESTON *      CLEAR     43  37  81 NW6       29.68S
HARLAN  *      CLEAR     37  36  93 NW9       29.75R WCI  31
LAMONI         CLEAR     48  39  71 S9        29.66S
RED OAK *      CLEAR     41  34  75 NW8       29.73R
SHENANDOAH *   CLEAR     46  34  61 W6        29.73R
$$

IAZ047>049-059>061-072>074-084-290300-
   CENTRAL IOWA

CITY           SKY/WX    TMP DP  RH WIND       PRES   REMARKS
AMES           CLEAR     37  32  82 NE3       29.70S
ANKENY *       CLEAR     39  34  81 CALM      29.68F
CHARITON *     PTCLDY    39  34  81 N7        29.67S WCI  34
DES MOINES     CLEAR     44  35  70 E8        29.67F
GRINNELL*      MOCLDY    34  32  93 E8        29.71F WCI  27
KNOXVILLE *    CLEAR     39  34  81 E7        29.67F WCI  34
MARSHALLTOWN   PTCLDY    34  31  88 E12       29.70F WCI  25
PELLA *        PTCLDY    39  34  81 E6        29.70F WCI  35
PERRY *          N/A     39  34  81 N5        29.69R
$$

IAZ004>006-015-016-023>025-035-036-290300-
   NORTH CENTRAL IOWA

CITY           SKY/WX    TMP DP  RH WIND       PRES   REMARKS
ALGONA *       CLOUDY    32  32 100 N6        29.75R FOG     WCI  26
CLARION *      CLEAR     34  34 100 E3        29.72S FOG
ESTHERVILLE    CLOUDY    32  31  96 N8        29.77R FOG     WCI  25
FORT DODGE *   CLEAR     30  27  86 N5        29.73R WCI  25
MASON CITY     PTCLDY    32  31  96 SE5       29.75S WCI  27
FOREST CITY *  MOCLDY    32  32 100 N3        29.74S FOG
IOWA FALLS *     N/A     34  32  93 E5        29.72S FOG     WCI  30
$$

IAZ007>011-017>019-026>030-037>042-050>054-066-290300-
   NORTHEAST IOWA

CITY           SKY/WX    TMP DP  RH WIND       PRES   REMARKS
CEDAR RAPIDS   CLOUDY    36  32  85 SE10      29.74F WCI  28
CHARLES CITY * CLEAR     32  32 100 SE9       29.74S WCI  24
CLINTON *      CLOUDY    36  28  75 SE14      29.84F WCI  27
DECORAH *      PTCLDY    32  28  86 SE8G17    29.75F WCI  25
DUBUQUE        CLOUDY    32  28  85 SE13      29.81F WCI  22
MONTICELLO *   CLEAR     34  34 100 SE9       29.79F WCI  26
OELWEIN *      MOCLDY    34  30  86 SE15      29.75F WCI  24
WATERLOO       CLOUDY    33  30  88 SE9       29.73F WCI  25
$$

IAZ064-065-067-068-078-290300-
   EAST CENTRAL IOWA

CITY           SKY/WX    TMP DP  RH WIND       PRES   REMARKS
DAVENPORT      CLOUDY    36  29  75 SE13G23   29.80F WCI  27
IOWA CITY      CLOUDY    36  32  85 SE8       29.77F WCI  30
MT. PLEASANT * CLOUDY    39  32  75 SE15      29.75F WCI  31
MUSCATINE *    CLEAR     39  32  75 SE9       29.78F WCI  33
QUAD CITIES    CLOUDY    37  30  75 SE10      29.80F WCI  30
$$

IAZ062-063-075>077-085>089-095>099-290300-
   SOUTHEAST IOWA

CITY           SKY/WX    TMP DP  RH WIND       PRES   REMARKS
BURLINGTON     CLOUDY    40  32  73 S9        29.77F WCI  34
FAIRFIELD *    CLEAR     39  32  75 SE9       29.72F WCI  33
FORT MADISON * CLEAR     39  34  81 SE15      29.77S WCI  31
KEOKUK *       CLEAR     43  34  70 SE10G16   29.75S
OSKALOOSA *      N/A     36  32  87 E9        29.69F WCI  29
CENTERVILLE *    N/A     41  36  81 SE7       29.68F
OTTUMWA        CLOUDY    40  33  76 SE10      29.68F WCI  33
WASHINGTON *   CLEAR     39  37  93 SE14      29.74F WCI  31
$$

ABBREVIATIONS USED IN REMARKS
   TC - TEMPERATURES IN CELSIUS
  WCI - WIND CHILL INDEX
   HX - HEAT INDEX
  VSB - VISIBILITY
$$




USA.gov is the U.S. government's official web portal to all federal, state and local government web resources and services.